Terminal Aerodrome Forecast
Issued by NWS Memphis, TN

Home | Current Version | Previous Version | Text Only | Print | Product List | Glossary On
Versions: 1 2 3 4 5 6 7 8 9 10 11 12 13 14 15 16 17 18 19 20 21 22 23 24 25 26 27 28 29
507
FTUS44 KMEG 231722
TAFMEM
TAF
KMEM 231722Z 2318/2418 33012G20KT P6SM BKN025
     FM232000 32010G15KT P6SM BKN025
     FM240100 VRB03KT P6SM SCT250
      TEMPO 2408/2412 5SM BR
     FM241300 19003KT P6SM BKN200=

USA.gov is the U.S. government's official web portal to all federal, state and local government web resources and services.